Weather History for Fallon NAS, NV

Change the Weather History Date:

Tuesday, March 13, 2012

  Actual Average Record
Temperature  
Mean Temperature 49 °F -  
Max Temperature 64 °F 57 °F 79 °F (2013)
Min Temperature 36 °F 28 °F 11 °F (1954)
Degree Days  
Heating Degree Days 16    
Moisture  
Dew Point 20 °F    
Average Humidity 30    
Maximum Humidity 39    
Minimum Humidity 19    
Precipitation  
Precipitation 0.00 in - - ()
Sea Level Pressure  
Sea Level Pressure 29.74 in    
Wind  
Wind Speed 12 mph (SW)    
Max Wind Speed 28 mph    
Max Gust Speed 36 mph    
Visibility 10 miles    
Events      
Averages and records for this station are not official NWS values.
T = Trace of Precipitation, MM = Missing Value Source: NWS Daily Summary

Daily Weather History Graph

Daily Weather History Graph

Search for Another Location

Airport:

Trip Planner

Search our weather history database for the weather conditions in past years. The results will help you decide how hot, cold, wet, or windy it might be!

Date:

Astronomy

Mar. 13, 2012 Rise Set
Actual Time 7:08 AM PDT 7:00 PM PDT
Civil Twilight 6:41 AM PDT 7:27 PM PDT
Nautical Twilight 6:10 AM PDT 7:58 PM PDT
Astronomical Twilight 5:39 AM PDT 8:29 PM PDT
Moon 12:35 AM PDT (3/13) 10:27 AM PDT (3/13)
Length of Visible Light 12h 45m
Length of Day
11h 51m
Waning Gibbous, 64% of the Moon is Illuminated
Mar 13
Waning Gibbous
Mar 14
Last Quarter
Mar 22
New
Mar 30
First Quarter
Apr 6
Full

Hourly Weather History & Observations

Time (PDT) Temp. Windchill Dew Point Humidity Pressure Visibility Wind Dir Wind Speed Gust Speed Precip Events Conditions
12:56 AM 46.9 °F - 15.1 °F 28% 29.71 in 10.0 mi SW 11.5 mph - N/A   Clear
1:56 AM 44.1 °F 40.8 °F 16.0 °F 32% 29.71 in 10.0 mi North 5.8 mph - N/A   Clear
2:56 AM 39.0 °F - 15.1 °F 38% 29.72 in 10.0 mi Calm Calm - N/A   Clear
3:56 AM 43.0 °F 37.7 °F 16.0 °F 34% 29.69 in 10.0 mi South 9.2 mph - N/A   Clear
4:00 AM - - - N/A% - - North - - N/A   Unknown
4:56 AM 42.1 °F 36.6 °F 15.1 °F 34% 29.69 in 10.0 mi SSW 9.2 mph - N/A   Clear
5:56 AM 46.9 °F - 18.0 °F 32% 29.70 in 10.0 mi SW 12.7 mph - N/A   Clear
6:11 AM 46.4 °F 40.4 °F 17.6 °F 32% 29.76 in 10.0 mi SSW 13.8 mph - N/A   Mostly Cloudy
6:56 AM 36.0 °F 29.0 °F 12.9 °F 39% 29.70 in 10.0 mi SSE 9.2 mph - N/A   Mostly Cloudy
7:56 AM 41.0 °F 36.4 °F 17.1 °F 38% 29.70 in 10.0 mi South 6.9 mph - N/A   Mostly Cloudy
8:56 AM 50.0 °F - 16.0 °F 26% 29.72 in 10.0 mi South 6.9 mph - N/A   Mostly Cloudy
9:56 AM 55.9 °F - 16.0 °F 21% 29.71 in 10.0 mi South 20.7 mph - N/A   Mostly Cloudy
10:56 AM 60.1 °F - 18.0 °F 20% 29.72 in 10.0 mi South 16.1 mph 27.6 mph N/A   Mostly Cloudy
11:56 AM 62.1 °F - 19.0 °F 19% 29.72 in 9.0 mi South 18.4 mph 35.7 mph N/A   Mostly Cloudy
12:56 PM 61.0 °F - 21.0 °F 21% 29.72 in 10.0 mi SW 21.9 mph 31.1 mph N/A   Overcast
1:56 PM 61.0 °F - 21.9 °F 22% 29.72 in 10.0 mi SSW 18.4 mph 26.5 mph N/A   Overcast
2:56 PM 62.1 °F - 23.0 °F 22% 29.72 in 10.0 mi SW 27.6 mph 34.5 mph N/A   Overcast
3:56 PM 62.1 °F - 24.1 °F 23% 29.73 in 10.0 mi West 17.3 mph 25.3 mph N/A   Overcast
4:56 PM 62.1 °F - 24.1 °F 23% 29.73 in 10.0 mi WSW 17.3 mph 24.2 mph N/A   Overcast
5:56 PM 57.9 °F - 26.1 °F 30% 29.75 in 10.0 mi WNW 18.4 mph - N/A   Overcast
6:56 PM 55.9 °F - 25.0 °F 30% 29.76 in 10.0 mi West 9.2 mph - N/A   Mostly Cloudy
7:56 PM 52.0 °F - 25.0 °F 35% 29.78 in 10.0 mi West 15.0 mph - N/A   Scattered Clouds
8:56 PM 53.1 °F - 26.1 °F 35% 29.79 in 10.0 mi West 17.3 mph - N/A   Mostly Cloudy
9:56 PM 52.0 °F - 27.0 °F 38% 29.81 in 10.0 mi WSW 18.4 mph 24.2 mph N/A   Overcast
10:56 PM 51.1 °F - 27.0 °F 39% 29.81 in 10.0 mi SW 10.4 mph - N/A   Clear
11:56 PM 51.1 °F - 26.1 °F 38% 29.82 in 10.0 mi WSW 11.5 mph - N/A   Clear